Regional Weather Roundup
Issued by NWS

Home | Current Version | Previous Version | Graphics & Text | Print | Product List | Glossary On
Versions: 1 2 3 4 5 6 7 8 9 10 11 12 13 14 15 16 17 18 19 20 21 22 23 24 25 26 27 28 29 30 31 32 33 34 35 36 37 38 39 40 41 42 43 44 45 46 47 48 49 50
000
ASUS43 KDTX 212001
RWRMI
MICHIGAN HOURLY REGIONAL WEATHER ROUNDUP
NATIONAL WEATHER SERVICE DETROIT/PONTIAC MI
400 PM EDT SAT APR 21 2018

NOTE: "FAIR" INDICATES FEW OR NO CLOUDS BELOW 12,000 FEET WITH NO
SIGNIFICANT WEATHER AND/OR OBSTRUCTION TO VISIBILITY.

MIZ047>049-052>055-059>063-066>070-074>076-081>083-212100-
SOUTHEAST LOWER MICHIGAN

CITY           SKY/WX    TMP DP  RH WIND       PRES   REMARKS
ADRIAN         FAIR      54  25  32 CALM      30.42F
ALMA           FAIR      57  28  32 SW7       30.40F
ANN ARBOR      FAIR      56  28  34 SE7       30.40F
BAD AXE        FAIR      61  15  16 W10       30.40F
CARO           FAIR      58  23  26 SW9       30.39F
DETROIT CITY   FAIR      53  14  21 SE3       30.42F
DETROIT        CLOUDY    56  24  29 SE5       30.42F
GROSSE ILE     FAIR      45  30  57 S8        30.43S
HILLSDALE      FAIR      52  21  30 SE3       30.40F
HOWELL         FAIR      55  24  30 S3        30.40F

CITY           SKY/WX    TMP DP  RH WIND       PRES   REMARKS
JACKSON        FAIR      55  23  28 SE5       30.40F
LAMBERTVILLE   FAIR      53  22  30 E5        30.42S
LANSING        FAIR      57  26  30 S6        30.40F
LAPEER         FAIR      56  24  28 CALM      30.40F
MASON          FAIR      58  18  21 CALM      30.40F
MONROE         FAIR      50  19  29 E7        30.42F
PONTIAC        CLOUDY    54  25  32 CALM      30.39F
PORT HOPE        N/A     43  32  65 E14       30.40F
PORT HURON     FAIR      55  19  24 SW5       30.42F
TRI CITIES     FAIR      58  25  28 SW7       30.40F
MIDLAND        FAIR      60  28  29 N12       30.37F
TROY           FAIR      55  16  21 SE5       30.43F
SAGINAW HB     FAIR      59  27  29 SW7       30.39F
$$
MIZ043>046-050>051-056>058-064>065-071>073-077>080-212100-
SOUTHWEST LOWER MICHIGAN

CITY           SKY/WX    TMP DP  RH WIND       PRES   REMARKS
BATTLE CREEK   FAIR      56  27  32 VRB5      30.40F
BENTON HARBOR  FAIR      52  21  29 NW7       30.42S
BIG RAPIDS     FAIR      57   5  12 CALM      30.38F
COLDWATER      FAIR      56  24  29 CALM      30.39F
HOLLAND        FAIR      55  23  28 W6        30.41F
GRAND RAPIDS   CLOUDY    58  28  32 SW9       30.39F
IONIA          FAIR      57  23  26 SW5       30.38F
KALAMAZOO      FAIR      58  23  26 SW6       30.40F
LUDINGTON      FAIR      53  17  24 W8        30.42R
MARSHALL       PTSUNNY   55  24  30 SW6       30.40F
MOUNT PLEASANT FAIR      58  24  26 SW6       30.38F
MUSKEGON       CLOUDY    55  20  25 NW8       30.41F
SOUTH HAVEN    FAIR      53  14  21 NW8       30.42S
$$
MIZ016>042-212100-
NORTHERN LOWER MICHIGAN

CITY           SKY/WX    TMP DP  RH WIND       PRES   REMARKS
ALPENA         FAIR      52  20  28 E9        30.40F
BEAVER ISLAND  FAIR      50  16  26 SW13G18   30.40S
BELLAIRE       FAIR      55   9  16 CALM      30.40F
CADILLAC       FAIR      56  14  18 CALM      30.37S
CHARLEVOIX     FAIR      53  19  26 SW7       30.43F
FRANKFORT      FAIR      51  12  20 SW6       30.42S
GAYLORD        FAIR      52  11  19 W6        30.38F
GRAYLING       FAIR      54  14  20 CALM      30.37F
HARBOR SPRINGS FAIR      47  19  34 W3        30.41S
HOUGHTON LAKE  FAIR      56  15  20 SW8       30.39F
MANISTEE       FAIR      55  15  20 W9        30.41S
OSCODA         FAIR      50  26  39 SE8       30.40F
PELLSTON       FAIR      54  13  19 SW5       30.40F
ROGERS CITY    FAIR      48  21  34 CALM      30.41F
TRAVERSE CITY  FAIR      58  16  19 VRB3      30.38F
$$
MIZ007>008-015-212100-
EASTERN UPPER MICHIGAN

CITY           SKY/WX    TMP DP  RH WIND       PRES   REMARKS
KINROSS        FAIR      54  12  18 W10       30.38F
MACKINAC ISLAN FAIR      52  17  25 W9        30.39F
NEWBERRY       FAIR      47  20  33 SE6       30.37F
S. S. MARIE    FAIR      57  18  21 SW10      30.36F
MUNISING         N/A     39  29  67 N8        30.37F WCI  33
$$
MIZ004>006-011>014-085-212100-
CENTRAL UPPER MICHIGAN

CITY           SKY/WX    TMP DP  RH WIND       PRES   REMARKS
MANISTIQUE     FAIR      43  32  65 S13       30.38F
ESCANABA       FAIR      53  22  29 SE9G16    30.37F
MENOMINEE      FAIR      57  22  25 SW10      30.38F
SAWYER-GWINN   SUNNY     54  14  20 N8        30.35F
$$
MIZ001>003-009>011-084-212100-
WESTERN UPPER MICHIGAN

CITY           SKY/WX    TMP DP  RH WIND       PRES   REMARKS
IRON MOUNTAIN  FAIR      61  11  14 W5        30.32F
HOUGHTON       FAIR      49  23  36 NW7       30.36F
COPPER HARBOR    N/A     41  28  60 CALM      30.38F
IRONWOOD       FAIR      57  17  21 NW9       30.35F
$$

ABBREVIATIONS USED IN REMARKS
   TC - TEMPERATURE IN CELSIUS
  WCI - WIND CHILL INDEX
   HX - HEAT INDEX
  VSB - VISIBILITY




USA.gov is the U.S. government's official web portal to all federal, state and local government web resources and services.